Weather Roundup
Issued by NWS Chicago, IL

Home | Current Version | Previous Version | Text Only | Print | Product List | Glossary Off
Versions: 1 2 3 4 5 6 7 8 9 10 11 12 13 14 15 16 17 18 19 20 21 22 23 24 25 26 27 28 29 30 31 32 33 34 35 36 37 38 39 40 41 42 43 44 45 46 47 48 49 50

000
NZUS59 KLOT 091512
HRRLOT

CHICAGO AREA WEATHER ROUNDUP
NATIONAL WEATHER SERVICE CHICAGO/ROMEOVILLE IL
900 AM CST FRI DEC 09 2016

NOTE: "FAIR" INDICATES FEW OR NO CLOUDS BELOW 12,000 FEET WITH NO
SIGNIFICANT WEATHER AND/OR OBSTRUCTIONS TO VISIBILITY.

* THESE STATIONS ARE NOT UNDER NWS QUALITY CONTROL. THEY ALSO MAY NOT
  REPORT WEATHER SUCH AS PRECIPITATION OR FOG.

ILZ005-006-012>014-019>023-091600-
NORTHEAST ILLINOIS

CITY           SKY/WX    TMP DP  RH WIND       PRES   REMARKS
OHARE          FLURRIES  23  17  78 W12       30.51R WCI  12
MIDWAY         FLURRIES  24  15  68 W12       30.52R WCI  13
AURORA         CLOUDY    23  17  78 W13       30.54R WCI  11
LANSING*       CLOUDY    24  20  84 W8        30.52S WCI  15
JOLIET*        CLOUDY    24  18  79 W9        30.55R WCI  14
WAUKEGAN       MOSUNNY   24  14  65 NW14G21   30.49R WCI  12
DUPAGE AIRPORT FLURRIES  23  16  74 W13       30.52R WCI  11
WHEELING       CLOUDY    24  16  71 W8        30.52R WCI  15
KANKAKEE*      MIX PCPN  23  17  77 W13       30.56R WCI  11
MORRIS*        CLOUDY    22  17  81 W12       30.55R WCI  10
LEWIS AIRPORT* CLOUDY    23  20  91 W9        30.54R WCI  13
NORTHERLY ISL    N/A     25  18  74 W9          N/A  WCI  16
$$

WIZ051-052-058>065-066-070>072-091600-
SOUTHEAST WISCONSIN

CITY           SKY/WX    TMP DP  RH WIND       PRES   REMARKS
MILWAUKEE      MOSUNNY   23  12  62 NW13      30.48R WCI  11
KENOSHA*       SUNNY     23  14  68 NW14G20   30.49R WCI  11
RACINE*        SUNNY     23  13  65 NW10G20   30.50R WCI  12
BURLINGTON     SUNNY     28  19  70 NW15      30.50R WCI  16
WAUKESHA       SUNNY     19  12  73 NW14G20   30.49R WCI   6
WEST BEND      SUNNY     21  14  73 NW8       30.47R WCI  12
$$

INZ001>003-010>013-019-020-091600-
NORTHWEST INDIANA

CITY           SKY/WX    TMP DP  RH WIND       PRES   REMARKS
GARY*          CLOUDY    27  19  74 W13       30.53R WCI  16
MICHIGAN CITY* NOT AVBL
RENSSELAER*    NOT AVBL
VALPARAISO     CLOUDY    24  17  74 W13       30.51R WCI  12
$$

LMZ740>746-091600-
SOUTHERN LAKE MICHIGAN

STATION/POSITION TIME  SKY/WX   TEMP WIND        PRES    VSBY
                                AIR  DIR/SP/G
                 (UTC)          (F)  (DEG/KT/KT) (MB)    (MI)
HARRISON CRIB    1440            25  290/ 13/ 14   N/A
BURNHAM HARBOR   1500            25  270/  9/ 13   N/A
CALUMET HARBOR   1448            24  280/  5/  9 1032.6R
BURNS HARBOR     1503            27  290/ 17/ 21 1032.8
MICHIGAN CITY    NOT AVBL
$$

ABBREVIATIONS USED IN REMARKS
   TC - TEMPERATURE IN CELSIUS
  WCI - WIND CHILL INDEX
   HX - HEAT INDEX
  VSB - VISIBILITY
$$



USA.gov is the U.S. government's official web portal to all federal, state and local government web resources and services.